When you browse on this site, cookies collect data to enhance your experience and personalize the content and advertising you see.
Visit our Privacy Policy to learn more. By continuing to use the site, you agree to this use of cookies and data.
  • In Österreich
  • Länderverzeichnis
  • Für 7 Tage
  • Wassertemperatur
  • Satellitenkarten
  • Wetterkarte
  • News
  • Widgets
  • user-avatar
    Anmelden

    Stündliche Wetter Ali Sabieh

    Heute, 19 Januar, Samstag

    Zeit Temperatur Niederschläge Wind Luftdruck Luftfeuchtigkeit
    00:00 +22°C° 0 mm 3 m/S 699 mmHg 72%
    01:00 +22°C° 0 mm 3 m/S 699 mmHg 74%
    02:00 +22°C° 0 mm 3 m/S 699 mmHg 76%
    03:00 +21°C° 0 mm 2 m/S 698 mmHg 78%
    04:00 +21°C° 0 mm 2 m/S 699 mmHg 81%
    05:00 +20°C° 0 mm 2 m/S 699 mmHg 83%
    06:00 +20°C° 0 mm 2 m/S 699 mmHg 85%
    07:00 +21°C° 0 mm 3 m/S 699 mmHg 80%
    08:00 +21°C° 0 mm 3 m/S 700 mmHg 76%
    09:00 +24°C° 0 mm 3 m/S 700 mmHg 71%
    10:00 +25°C° 0 mm 4 m/S 700 mmHg 64%
    11:00 +26°C° 0 mm 4 m/S 700 mmHg 56%
    12:00 +28°C° 0 mm 5 m/S 700 mmHg 49%
    13:00 +28°C° 0 mm 5 m/S 700 mmHg 46%
    14:00 +29°C° 0 mm 5 m/S 699 mmHg 43%
    15:00 +29°C° 0 mm 5 m/S 699 mmHg 41%
    16:00 +28°C° 0 mm 6 m/S 699 mmHg 46%
    17:00 +27°C° 0 mm 6 m/S 699 mmHg 51%
    18:00 +26°C° 0 mm 7 m/S 699 mmHg 56%
    19:00 +24°C° 0 mm 6 m/S 699 mmHg 59%
    20:00 +23°C° 0 mm 5 m/S 699 mmHg 63%
    21:00 +22°C° 0 mm 4 m/S 700 mmHg 67%
    22:00 +22°C° 0 mm 4 m/S 700 mmHg 69%
    23:00 +21°C° 0 mm 4 m/S 700 mmHg 71%

    Morgen, 20 Januar, Sonntag

    Zeit Temperatur Niederschläge Wind Luftdruck Luftfeuchtigkeit
    00:00 +21°C° 0 mm 4 m/S 699 mmHg 72%
    01:00 +21°C° 0 mm 3 m/S 699 mmHg 75%
    02:00 +20°C° 0 mm 3 m/S 699 mmHg 77%
    03:00 +20°C° 0 mm 3 m/S 699 mmHg 80%
    04:00 +19°C° 0 mm 3 m/S 699 mmHg 82%
    05:00 +19°C° 0 mm 2 m/S 699 mmHg 85%
    06:00 +19°C° 0 mm 2 m/S 699 mmHg 87%
    07:00 +20°C° 0 mm 3 m/S 700 mmHg 80%
    08:00 +21°C° 0 mm 3 m/S 700 mmHg 73%
    09:00 +22°C° 0 mm 3 m/S 701 mmHg 65%
    10:00 +23°C° 0 mm 4 m/S 701 mmHg 59%
    11:00 +26°C° 0 mm 5 m/S 701 mmHg 53%
    12:00 +27°C° 0 mm 5 m/S 701 mmHg 47%
    13:00 +28°C° 0 mm 6 m/S 701 mmHg 45%
    14:00 +28°C° 0 mm 6 m/S 700 mmHg 44%
    15:00 +29°C° 0 mm 6 m/S 700 mmHg 43%
    16:00 +28°C° 0 mm 7 m/S 700 mmHg 47%
    17:00 +27°C° 0 mm 7 m/S 700 mmHg 51%
    18:00 +26°C° 0 mm 7 m/S 699 mmHg 55%
    19:00 +24°C° 0 mm 7 m/S 700 mmHg 60%
    20:00 +23°C° 0 mm 6 m/S 700 mmHg 65%
    21:00 +22°C° 0 mm 5 m/S 700 mmHg 70%
    22:00 +21°C° 0 mm 5 m/S 700 mmHg 72%
    23:00 +21°C° 0 mm 5 m/S 700 mmHg 74%

    übermorgen, 21 Januar, Montag

    Zeit Temperatur Niederschläge Wind Luftdruck Luftfeuchtigkeit
    00:00 +21°C° 0 mm 5 m/S 700 mmHg 77%
    01:00 +20°C° 0 mm 5 m/S 700 mmHg 79%
    02:00 +20°C° 0 mm 4 m/S 699 mmHg 82%
    03:00 +20°C° 0 mm 4 m/S 699 mmHg 84%
    04:00 +19°C° 0 mm 4 m/S 699 mmHg 85%
    05:00 +19°C° 0 mm 3 m/S 700 mmHg 86%
    06:00 +19°C° 0 mm 3 m/S 700 mmHg 87%
    07:00 +20°C° 0 mm 4 m/S 701 mmHg 80%
    08:00 +21°C° 0 mm 4 m/S 701 mmHg 73%
    09:00 +22°C° 0 mm 5 m/S 702 mmHg 65%
    10:00 +25°C° 0 mm 5 m/S 702 mmHg 58%
    11:00 +26°C° 0 mm 5 m/S 702 mmHg 51%
    12:00 +28°C° 0 mm 6 m/S 701 mmHg 43%
    13:00 +28°C° 0 mm 6 m/S 701 mmHg 41%
    14:00 +29°C° 0 mm 6 m/S 700 mmHg 40%
    15:00 +30°C° 0 mm 7 m/S 699 mmHg 38%
    16:00 +28°C° 0 mm 7 m/S 699 mmHg 45%
    17:00 +27°C° 0 mm 8 m/S 699 mmHg 52%
    18:00 +26°C° 0 mm 8 m/S 699 mmHg 58%
    19:00 +24°C° 0 mm 8 m/S 699 mmHg 63%
    20:00 +23°C° 0 mm 7 m/S 699 mmHg 69%
    21:00 +22°C° 0 mm 7 m/S 700 mmHg 74%
    22:00 +22°C° 0 mm 6 m/S 700 mmHg 76%
    23:00 +21°C° 0 mm 6 m/S 699 mmHg 78%

    22 Januar, Dienstag

    Zeit Temperatur Niederschläge Wind Luftdruck Luftfeuchtigkeit
    00:00 +21°C° 0 mm 5 m/S 699 mmHg 81%
    01:00 +21°C° 0 mm 5 m/S 699 mmHg 82%
    02:00 +21°C° 0 mm 4 m/S 698 mmHg 83%
    03:00 +21°C° 0 mm 4 m/S 698 mmHg 84%
    04:00 +20°C° 0 mm 4 m/S 698 mmHg 85%
    05:00 +20°C° 0 mm 3 m/S 699 mmHg 86%
    06:00 +20°C° 0 mm 3 m/S 699 mmHg 87%
    07:00 +21°C° 0 mm 4 m/S 699 mmHg 81%
    08:00 +22°C° 0 mm 4 m/S 700 mmHg 75%
    09:00 +23°C° 0 mm 5 m/S 701 mmHg 70%
    10:00 +25°C° 0 mm 5 m/S 701 mmHg 63%
    11:00 +27°C° 0 mm 5 m/S 700 mmHg 57%
    12:00 +28°C° 0 mm 6 m/S 700 mmHg 51%
    13:00 +29°C° 0 mm 6 m/S 699 mmHg 49%
    14:00 +29°C° 0 mm 6 m/S 699 mmHg 48%
    15:00 +30°C° 0 mm 6 m/S 698 mmHg 46%
    16:00 +28°C° 0 mm 7 m/S 698 mmHg 52%
    17:00 +27°C° 0 mm 7 m/S 698 mmHg 58%
    18:00 +26°C° 0 mm 7 m/S 698 mmHg 65%
    19:00 +24°C° 0 mm 7 m/S 698 mmHg 69%
    20:00 +23°C° 0 mm 7 m/S 698 mmHg 73%
    21:00 +22°C° 0 mm 6 m/S 699 mmHg 78%
    22:00 +22°C° 0 mm 6 m/S 699 mmHg 79%
    23:00 +22°C° 0 mm 5 m/S 698 mmHg 80%

    23 Januar, Mittwoch

    Zeit Temperatur Niederschläge Wind Luftdruck Luftfeuchtigkeit
    00:00 +21°C° 0 mm 5 m/S 698 mmHg 80%
    01:00 +21°C° 0 mm 5 m/S 698 mmHg 82%
    02:00 +20°C° 0 mm 4 m/S 697 mmHg 84%
    03:00 +20°C° 0 mm 4 m/S 697 mmHg 86%
    04:00 +20°C° 0 mm 4 m/S 697 mmHg 87%
    05:00 +20°C° 0 mm 4 m/S 698 mmHg 88%
    06:00 +19°C° 0 mm 3 m/S 698 mmHg 90%
    07:00 +20°C° 0 mm 4 m/S 699 mmHg 83%
    08:00 +21°C° 0 mm 4 m/S 699 mmHg 77%
    09:00 +22°C° 0 mm 5 m/S 700 mmHg 71%
    10:00 +24°C° 0 mm 6 m/S 700 mmHg 64%
    11:00 +26°C° 0 mm 7 m/S 700 mmHg 57%
    12:00 +28°C° 0 mm 8 m/S 699 mmHg 51%
    13:00 +28°C° 0 mm 8 m/S 699 mmHg 49%
    14:00 +28°C° 0 mm 8 m/S 698 mmHg 47%
    15:00 +28°C° 0 mm 9 m/S 697 mmHg 46%
    16:00 +27°C° 0 mm 9 m/S 697 mmHg 51%
    17:00 +26°C° 0 mm 9 m/S 697 mmHg 57%
    18:00 +24°C° 0 mm 9 m/S 698 mmHg 63%
    19:00 +23°C° 0 mm 8 m/S 698 mmHg 68%
    20:00 +22°C° 0 mm 7 m/S 699 mmHg 73%
    21:00 +21°C° 0 mm 6 m/S 699 mmHg 78%
    22:00 +21°C° 0 mm 5 m/S 699 mmHg 79%
    23:00 +21°C° 0 mm 5 m/S 699 mmHg 81%

    24 Januar, Donnerstag

    Zeit Temperatur Niederschläge Wind Luftdruck Luftfeuchtigkeit
    00:00 +21°C° 0 mm 5 m/S 699 mmHg 82%
    01:00 +20°C° 0 mm 4 m/S 698 mmHg 83%
    02:00 +20°C° 0 mm 4 m/S 698 mmHg 84%
    03:00 +20°C° 0 mm 4 m/S 698 mmHg 85%
    04:00 +20°C° 0 mm 4 m/S 698 mmHg 86%
    05:00 +20°C° 0 mm 4 m/S 698 mmHg 86%
    06:00 +20°C° 0 mm 4 m/S 699 mmHg 87%
    07:00 +20°C° 0 mm 5 m/S 699 mmHg 82%
    08:00 +21°C° 0 mm 6 m/S 700 mmHg 77%
    09:00 +22°C° 0 mm 7 m/S 701 mmHg 72%
    10:00 +23°C° 0 mm 7 m/S 700 mmHg 65%
    11:00 +26°C° 0 mm 8 m/S 700 mmHg 58%
    12:00 +27°C° 0 mm 8 m/S 700 mmHg 52%
    13:00 +28°C° 0 mm 8 m/S 699 mmHg 49%
    14:00 +28°C° 0 mm 8 m/S 699 mmHg 46%
    15:00 +28°C° 0 mm 8 m/S 698 mmHg 44%
    16:00 +27°C° 0 mm 8 m/S 698 mmHg 50%
    17:00 +26°C° 0 mm 8 m/S 698 mmHg 56%
    18:00 +24°C° 0 mm 8 m/S 698 mmHg 62%
    19:00 +23°C° 0 mm 7 m/S 698 mmHg 68%
    20:00 +22°C° 0 mm 7 m/S 699 mmHg 74%
    21:00 +22°C° 0 mm 6 m/S 699 mmHg 79%
    22:00 +21°C° 0 mm 6 m/S 699 mmHg 80%
    23:00 +21°C° 0 mm 6 m/S 699 mmHg 81%
    Mehr zeigen